AHK1 VIDP-VHHH

Flight info

Callsign AHK1
Flight time N/A
Altitude 39000
Route ALI G452 LKN A201 BODOG/N0489F410 A201 LSO A599 LINSO/K0902S1250 A599 POU R473 SIERA
Aircraft B742/H-SDFHIRWXY/L

Departure

Time 2026-04-28 23:59
Airport Indira Gandhi International Airport (VIDP)

Arrival

Time N/A
Airport Hong Kong International Airport (VHHH)
Time Latitude Longitude Altitude Speed Heading
2026-04-28 23:25 28.55788 77.10098 782 ft 0 kts 195°
2026-04-28 23:42 28.55789 77.10098 782 ft 1 kts 195°
2026-04-28 23:42 28.55804 77.10103 781 ft 2 kts 195°
2026-04-28 23:43 28.55813 77.10105 781 ft 1 kts 195°
2026-04-28 23:43 28.55827 77.10108 781 ft 2 kts 180°
2026-04-28 23:43 28.55842 77.10107 781 ft 2 kts 166°
2026-04-28 23:43 28.55857 77.10101 781 ft 2 kts 151°
2026-04-28 23:44 28.55869 77.10091 782 ft 2 kts 137°
2026-04-28 23:44 28.55879 77.10078 782 ft 2 kts 122°
2026-04-28 23:44 28.55886 77.10062 782 ft 1 kts 108°
2026-04-28 23:44 28.55887 77.10055 782 ft 0 kts 104°
2026-04-28 23:50 28.55887 77.10059 782 ft 1 kts 104°
2026-04-28 23:50 28.55881 77.10081 782 ft 5 kts 104°
2026-04-28 23:50 28.55865 77.10152 782 ft 10 kts 104°
2026-04-28 23:51 28.55848 77.10228 782 ft 9 kts 104°
2026-04-28 23:51 28.55838 77.10274 782 ft 0 kts 100°
2026-04-28 23:51 28.55837 77.10287 782 ft 4 kts 88°
2026-04-28 23:51 28.55868 77.10335 782 ft 12 kts 32°
2026-04-28 23:52 28.55981 77.10381 782 ft 20 kts 15°
2026-04-28 23:52 28.56067 77.10438 782 ft 9 kts 75°
2026-04-28 23:52 28.56065 77.10509 782 ft 11 kts 102°
2026-04-28 23:52 28.56037 77.10646 782 ft 23 kts 104°
2026-04-28 23:53 28.55989 77.10853 782 ft 30 kts 104°
2026-04-28 23:53 28.55932 77.11094 782 ft 24 kts 104°
2026-04-28 23:53 28.55887 77.11293 782 ft 26 kts 104°
2026-04-28 23:53 28.55791 77.11429 782 ft 22 kts 185°
2026-04-28 23:54 28.55640 77.11388 782 ft 21 kts 195°
2026-04-28 23:54 28.55491 77.11342 782 ft 22 kts 194°
2026-04-28 23:54 28.55345 77.11299 782 ft 21 kts 195°
2026-04-28 23:54 28.55206 77.11256 782 ft 20 kts 196°
2026-04-28 23:55 28.55073 77.11218 782 ft 18 kts 193°
2026-04-28 23:55 28.54949 77.11180 782 ft 17 kts 196°
2026-04-28 23:55 28.54832 77.11146 782 ft 16 kts 194°
2026-04-28 23:55 28.54723 77.11112 782 ft 15 kts 195°
2026-04-28 23:56 28.54618 77.11081 782 ft 16 kts 195°
2026-04-28 23:56 28.54495 77.11044 782 ft 19 kts 195°
2026-04-28 23:56 28.54384 77.11047 782 ft 11 kts 123°
2026-04-28 23:56 28.54350 77.11149 782 ft 15 kts 111°
2026-04-28 23:57 28.54266 77.11205 782 ft 15 kts 187°
2026-04-28 23:57 28.54246 77.11201 782 ft 0 kts 193°
2026-04-28 23:57 28.54220 77.11194 782 ft 9 kts 194°
2026-04-28 23:58 28.54129 77.11160 782 ft 13 kts 220°
2026-04-28 23:58 28.54102 77.11058 782 ft 14 kts 282°
2026-04-28 23:58 28.54151 77.10825 782 ft 70 kts 284°
2026-04-28 23:58 28.54245 77.10389 782 ft 123 kts 283°
2026-04-28 23:59 28.54493 77.09202 1105 ft 171 kts 284°
2026-04-28 23:59 28.54741 77.07969 1502 ft 158 kts 286°
2026-04-28 23:59 28.54983 77.06657 1903 ft 179 kts 281°
2026-04-28 23:59 28.55455 77.05414 2754 ft 173 kts 322°
2026-04-29 00:00 28.56533 77.04964 3494 ft 172 kts
2026-04-29 00:00 28.57579 77.05588 4154 ft 181 kts 53°
2026-04-29 00:00 28.57942 77.06975 4870 ft 199 kts 95°
2026-04-29 00:00 28.57360 77.08402 5660 ft 212 kts 135°
2026-04-29 00:01 28.56056 77.09244 6540 ft 226 kts 157°
2026-04-29 00:01 28.54600 77.09981 7625 ft 236 kts 155°
2026-04-29 00:01 28.53131 77.10773 8827 ft 241 kts 156°
2026-04-29 00:01 28.51710 77.11767 10040 ft 244 kts 146°
2026-04-29 00:02 28.50386 77.12920 11237 ft 244 kts 146°
2026-04-29 00:02 28.49064 77.14076 12395 ft 243 kts 146°
2026-04-29 00:02 28.47656 77.15301 12963 ft 270 kts 146°
2026-04-29 00:02 28.46080 77.16671 13658 ft 293 kts 146°
2026-04-29 00:03 28.44427 77.18118 14510 ft 310 kts 145°
2026-04-29 00:03 28.42701 77.19695 15449 ft 324 kts 143°
2026-04-29 00:03 28.40969 77.21357 16444 ft 334 kts 142°
2026-04-29 00:03 28.39204 77.23118 17496 ft 341 kts 142°
2026-04-29 00:04 28.37433 77.24925 18528 ft 346 kts 141°
2026-04-29 00:04 28.35661 77.26759 19548 ft 350 kts 141°
2026-04-29 00:04 28.33865 77.28638 20583 ft 352 kts 140°
2026-04-29 00:04 28.32062 77.30534 21574 ft 353 kts 140°
2026-04-29 00:05 28.30269 77.32415 22526 ft 354 kts 140°
2026-04-29 00:05 28.28469 77.34300 23480 ft 354 kts 139°
2026-04-29 00:05 28.26657 77.36195 24398 ft 354 kts 140°
2026-04-29 00:05 28.24841 77.38084 25275 ft 354 kts 139°
2026-04-29 00:06 28.23017 77.39977 26113 ft 353 kts 139°
2026-04-29 00:06 28.21205 77.41839 26888 ft 353 kts 140°
2026-04-29 00:06 28.19361 77.43722 27542 ft 357 kts 140°
2026-04-29 00:06 28.17455 77.45506 28103 ft 361 kts 143°
2026-04-29 00:07 28.15467 77.47252 28718 ft 365 kts 143°
2026-04-29 00:07 28.13428 77.49027 29302 ft 369 kts 143°
2026-04-29 00:07 28.11370 77.50817 29901 ft 371 kts 143°
2026-04-29 00:07 28.09420 77.52751 30422 ft 376 kts 130°
2026-04-29 00:08 28.07931 77.55236 30896 ft 381 kts 114°
2026-04-29 00:08 28.07032 77.58038 31462 ft 382 kts 104°
2026-04-29 00:08 28.06257 77.60929 31988 ft 386 kts 107°
2026-04-29 00:08 28.05343 77.63817 32523 ft 390 kts 110°
2026-04-29 00:09 28.04323 77.66651 33091 ft 392 kts 113°
2026-04-29 00:09 28.03216 77.69531 33543 ft 396 kts 114°
2026-04-29 00:09 28.02112 77.72365 33947 ft 401 kts 113°
2026-04-29 00:09 28.00973 77.75311 34321 ft 407 kts 113°
2026-04-29 00:10 27.99840 77.78262 34719 ft 412 kts 112°
2026-04-29 00:10 27.98689 77.81265 35093 ft 417 kts 112°
2026-04-29 00:10 27.97529 77.84294 35451 ft 422 kts 112°
2026-04-29 00:10 27.96356 77.87357 35832 ft 426 kts 112°
2026-04-29 00:11 27.95176 77.90433 36207 ft 429 kts 112°
2026-04-29 00:11 27.93984 77.93536 36478 ft 435 kts 112°
2026-04-29 00:11 27.91541 77.99895 37092 ft 445 kts 111°
2026-04-29 00:12 27.90297 78.03127 37428 ft 448 kts 111°
2026-04-29 00:12 27.89046 78.06378 37646 ft 454 kts 111°
2026-04-29 00:12 27.87777 78.09682 37925 ft 459 kts 111°
2026-04-29 00:12 27.86498 78.13005 38419 ft 460 kts 111°
2026-04-29 00:13 27.85227 78.16299 38843 ft 462 kts 111°
2026-04-29 00:13 27.83924 78.19672 39178 ft 467 kts 111°
2026-04-29 00:13 27.82616 78.23055 39147 ft 479 kts 111°
2026-04-29 00:13 27.81267 78.26544 38982 ft 495 kts 111°
2026-04-29 00:14 27.79832 78.30250 38049 ft 526 kts 111°
2026-04-29 00:14 27.78348 78.34077 38048 ft 538 kts 112°
2026-04-29 00:14 27.76831 78.37982 38559 ft 542 kts 112°
2026-04-29 00:14 27.75321 78.41866 38724 ft 552 kts 111°
2026-04-29 00:15 27.73744 78.45919 38797 ft 561 kts 112°
2026-04-29 00:15 27.72194 78.49900 39608 ft 556 kts 111°
2026-04-29 00:15 27.70643 78.53876 40699 ft 547 kts 111°
2026-04-29 00:15 27.69120 78.57781 41395 ft 545 kts 111°
2026-04-29 00:16 27.67603 78.61666 41645 ft 550 kts 111°
2026-04-29 00:16 27.66053 78.65634 41484 ft 545 kts 112°
2026-04-29 00:16 27.64523 78.69507 40802 ft 541 kts 112°
2026-04-29 00:16 27.62981 78.73383 40522 ft 538 kts 112°
2026-04-29 00:17 27.61466 78.77202 40755 ft 537 kts 112°
2026-04-29 00:17 27.59942 78.81058 40953 ft 536 kts 112°
2026-04-29 00:17 27.58422 78.84916 40435 ft 549 kts 112°
2026-04-29 00:17 27.56833 78.88959 39152 ft 571 kts 112°
2026-04-29 00:18 27.55226 78.93048 38600 ft 572 kts 112°
2026-04-29 00:18 27.53630 78.97099 38990 ft 563 kts 112°
2026-04-29 00:18 27.52025 79.01166 38879 ft 566 kts 112°
2026-04-29 00:18 27.50439 79.05183 38713 ft 567 kts 112°
2026-04-29 00:19 27.48825 79.09267 38689 ft 566 kts 112°
2026-04-29 00:19 27.45648 79.17294 38680 ft 553 kts 112°
2026-04-29 00:19 27.44087 79.21228 38676 ft 535 kts 112°
2026-04-29 00:20 27.42604 79.24963 38661 ft 517 kts 112°
2026-04-29 00:20 27.41147 79.28630 38666 ft 503 kts 112°
2026-04-29 00:20 27.39726 79.32206 38670 ft 504 kts 112°
2026-04-29 00:21 27.36830 79.39489 38671 ft 516 kts 113°
2026-04-29 00:21 27.33864 79.46931 38672 ft 524 kts 113°
2026-04-29 00:22 27.30889 79.54380 38667 ft 522 kts 113°
2026-04-29 00:22 27.27927 79.61777 38675 ft 518 kts 113°
2026-04-29 00:23 27.24951 79.69165 38669 ft 518 kts 114°
2026-04-29 00:23 27.21955 79.76520 38673 ft 517 kts 114°
2026-04-29 00:24 27.19006 79.83809 38675 ft 517 kts 114°
2026-04-29 00:24 27.16036 79.91170 38677 ft 515 kts 114°
2026-04-29 00:25 27.13111 79.98413 38676 ft 505 kts 114°
2026-04-29 00:25 27.10212 80.05579 38679 ft 506 kts 114°
2026-04-29 00:26 27.07316 80.12725 38680 ft 507 kts 114°
2026-04-29 00:26 27.04386 80.19942 38683 ft 505 kts 114°
2026-04-29 00:27 27.01477 80.27093 38680 ft 505 kts 114°
2026-04-29 00:27 26.98569 80.34229 38682 ft 504 kts 114°
2026-04-29 00:28 26.95664 80.41345 38679 ft 502 kts 114°
2026-04-29 00:28 26.92767 80.48429 38688 ft 502 kts 114°
2026-04-29 00:29 26.89862 80.55522 38677 ft 500 kts 114°
2026-04-29 00:29 26.86960 80.62600 38681 ft 500 kts 114°
2026-04-29 00:30 26.84056 80.69627 38676 ft 500 kts 115°
2026-04-29 00:30 26.81116 80.76676 38672 ft 500 kts 115°
2026-04-29 00:31 26.78194 80.83727 38679 ft 501 kts 115°
2026-04-29 00:31 26.75395 80.90853 38677 ft 500 kts 109°
2026-04-29 00:32 26.73387 80.98281 38678 ft 499 kts 105°
2026-04-29 00:32 26.71542 81.05699 38677 ft 497 kts 105°
2026-04-29 00:33 26.69643 81.13104 38683 ft 498 kts 106°
2026-04-29 00:33 26.67696 81.20542 38683 ft 497 kts 106°
2026-04-29 00:34 26.65754 81.27912 38685 ft 497 kts 106°
2026-04-29 00:34 26.63800 81.35313 38685 ft 497 kts 107°
2026-04-29 00:35 26.61850 81.42681 38682 ft 495 kts 107°
2026-04-29 00:35 26.59901 81.50028 38694 ft 496 kts 107°
2026-04-29 00:36 26.57941 81.57403 38693 ft 496 kts 107°
2026-04-29 00:36 26.55976 81.64776 38692 ft 495 kts 107°
2026-04-29 00:37 26.53990 81.72107 38682 ft 494 kts 108°
2026-04-29 00:37 26.51998 81.79441 38682 ft 494 kts 108°
2026-04-29 00:38 26.50030 81.86747 38691 ft 494 kts 108°
2026-04-29 00:38 26.48058 81.94079 38680 ft 492 kts 108°
2026-04-29 00:39 26.46096 82.01360 38686 ft 494 kts 108°
2026-04-29 00:39 26.44111 82.08712 38684 ft 492 kts 108°
2026-04-29 00:40 26.42140 82.15995 38692 ft 492 kts 108°
2026-04-29 00:40 26.40160 82.23293 38683 ft 492 kts 108°
2026-04-29 00:41 26.38191 82.30535 38682 ft 490 kts 108°
2026-04-29 00:41 26.36215 82.37791 38693 ft 492 kts 108°
2026-04-29 00:42 26.34225 82.45077 38683 ft 491 kts 108°
2026-04-29 00:42 26.32230 82.52369 38686 ft 491 kts 108°
2026-04-29 00:43 26.30246 82.59602 38694 ft 492 kts 108°
2026-04-29 00:43 26.28245 82.66873 38691 ft 490 kts 109°
2026-04-29 00:44 26.26205 82.74146 38689 ft 490 kts 109°
2026-04-29 00:44 26.24201 82.81325 38693 ft 490 kts 109°
2026-04-29 00:45 26.22180 82.88611 38695 ft 491 kts 109°
2026-04-29 00:45 26.20186 82.95803 38697 ft 489 kts 109°
2026-04-29 00:46 26.18182 83.03017 38698 ft 489 kts 109°
2026-04-29 00:46 26.16170 83.10246 38704 ft 490 kts 109°
2026-04-29 00:47 26.14150 83.17486 38697 ft 489 kts 109°
2026-04-29 00:47 26.12129 83.24712 38686 ft 491 kts 109°
2026-04-29 00:48 26.10106 83.31929 38686 ft 490 kts 109°
2026-04-29 00:48 26.08085 83.39130 38686 ft 489 kts 109°
2026-04-29 00:49 26.06046 83.46376 38691 ft 490 kts 109°
2026-04-29 00:49 26.04018 83.53567 38702 ft 491 kts 109°
2026-04-29 00:50 26.02025 83.60832 38709 ft 490 kts 108°
2026-04-29 00:50 26.01022 83.64442 38917 ft 487 kts 109°
2026-04-29 00:50 25.99990 83.68005 39132 ft 488 kts 110°
2026-04-29 00:50 25.98939 83.71568 39339 ft 490 kts 110°
2026-04-29 00:51 25.97884 83.75172 39550 ft 491 kts 110°
2026-04-29 00:51 25.96827 83.78825 39760 ft 492 kts 109°
2026-04-29 00:51 25.95785 83.82459 39960 ft 493 kts 109°
2026-04-29 00:51 25.94749 83.86090 40148 ft 493 kts 109°
2026-04-29 00:52 25.93717 83.89718 40340 ft 494 kts 109°
2026-04-29 00:52 25.92685 83.93346 40526 ft 494 kts 109°
2026-04-29 00:52 25.91643 83.97003 40674 ft 495 kts 109°
2026-04-29 00:53 25.89542 84.04375 40708 ft 502 kts 109°
2026-04-29 00:53 25.87428 84.11785 40707 ft 496 kts 109°
2026-04-29 00:54 25.85376 84.18959 40710 ft 489 kts 109°
2026-04-29 00:54 25.83300 84.26191 40707 ft 492 kts 109°
2026-04-29 00:55 25.81222 84.33414 40708 ft 494 kts 109°
2026-04-29 00:55 25.79135 84.40651 40707 ft 491 kts 109°
2026-04-29 00:56 25.77066 84.47816 40712 ft 492 kts 109°
2026-04-29 00:56 25.74972 84.55045 40709 ft 492 kts 109°
2026-04-29 00:57 25.72884 84.62245 40708 ft 492 kts 109°
2026-04-29 00:57 25.70775 84.69450 40714 ft 491 kts 109°
2026-04-29 00:58 25.68649 84.76630 40708 ft 492 kts 109°
2026-04-29 00:58 25.66532 84.83836 40706 ft 492 kts 109°
2026-04-29 00:59 25.64422 84.91044 40708 ft 493 kts 109°
2026-04-29 00:59 25.62308 84.98260 40705 ft 491 kts 109°
2026-04-29 01:00 25.60192 85.05466 40714 ft 491 kts 109°
2026-04-29 01:00 25.58349 85.12693 40716 ft 492 kts 102°
2026-04-29 01:01 25.57087 85.20139 40719 ft 493 kts 101°
2026-04-29 01:01 25.55851 85.27644 40714 ft 492 kts 101°
2026-04-29 01:02 25.54573 85.35096 40714 ft 493 kts 102°
2026-04-29 01:02 25.53278 85.42507 40719 ft 492 kts 102°
2026-04-29 01:03 25.51969 85.49955 40725 ft 492 kts 102°
2026-04-29 01:03 25.50665 85.57345 40724 ft 491 kts 102°
2026-04-29 01:04 25.49353 85.64763 40734 ft 490 kts 102°
2026-04-29 01:04 25.48015 85.72154 40742 ft 491 kts 103°
2026-04-29 01:05 25.46674 85.79534 40739 ft 492 kts 102°
2026-04-29 01:05 25.45350 85.86911 40745 ft 490 kts 102°
2026-04-29 01:06 25.44018 85.94350 40746 ft 490 kts 102°
2026-04-29 01:06 25.42694 86.01721 40734 ft 490 kts 102°
2026-04-29 01:07 25.41355 86.09158 40744 ft 489 kts 102°
2026-04-29 01:07 25.40024 86.16525 40742 ft 490 kts 102°
2026-04-29 01:08 25.38697 86.23852 40745 ft 489 kts 102°
2026-04-29 01:08 25.37355 86.31236 40748 ft 490 kts 102°
2026-04-29 01:09 25.36004 86.38650 40743 ft 491 kts 102°
2026-04-29 01:09 25.34263 86.45877 40748 ft 487 kts 113°
2026-04-29 01:10 25.31487 86.52739 40747 ft 486 kts 117°
2026-04-29 01:10 25.28604 86.59501 40753 ft 486 kts 116°
2026-04-29 01:11 25.25758 86.66277 40746 ft 486 kts 117°
2026-04-29 01:11 25.22927 86.72989 40747 ft 485 kts 117°
2026-04-29 01:12 25.20079 86.79779 40754 ft 485 kts 116°
2026-04-29 01:12 25.17275 86.86499 40743 ft 485 kts 116°
2026-04-29 01:13 25.14453 86.93265 40746 ft 485 kts 116°
2026-04-29 01:13 25.11613 87.00066 40750 ft 486 kts 116°
2026-04-29 01:14 25.08782 87.06831 40753 ft 486 kts 116°
2026-04-29 01:14 25.05943 87.13608 40749 ft 486 kts 117°
2026-04-29 01:15 25.03120 87.20335 40753 ft 486 kts 117°
2026-04-29 01:15 25.00281 87.27090 40755 ft 486 kts 116°
2026-04-29 01:16 24.97434 87.33851 40766 ft 485 kts 116°
2026-04-29 01:16 24.94595 87.40585 40772 ft 485 kts 116°
2026-04-29 01:17 24.91731 87.47368 40771 ft 486 kts 116°
2026-04-29 01:17 24.88884 87.54102 40769 ft 485 kts 116°
2026-04-29 01:18 24.86040 87.60825 40770 ft 486 kts 116°
2026-04-29 01:18 24.81719 87.70950 40760 ft 486 kts 117°
2026-04-29 01:19 24.78840 87.77650 40757 ft 486 kts 117°
2026-04-29 01:19 24.76021 87.84369 40758 ft 485 kts 116°
2026-04-29 01:20 24.73246 87.91157 40766 ft 486 kts 116°
2026-04-29 01:20 24.70489 87.97891 40776 ft 485 kts 116°
2026-04-29 01:21 24.67690 88.04695 40773 ft 486 kts 116°
2026-04-29 01:21 24.64901 88.11404 40786 ft 486 kts 116°
2026-04-29 01:22 24.62087 88.18152 40789 ft 485 kts 116°
2026-04-29 01:22 24.59267 88.24908 40785 ft 485 kts 116°
2026-04-29 01:23 24.56445 88.31659 40781 ft 486 kts 116°
2026-04-29 01:23 24.53621 88.38407 40786 ft 487 kts 116°
2026-04-29 01:24 24.50786 88.45172 40789 ft 486 kts 116°
2026-04-29 01:24 24.47960 88.51905 40786 ft 485 kts 116°
2026-04-29 01:25 24.45115 88.58671 40787 ft 486 kts 116°
2026-04-29 01:25 24.42939 88.65681 40789 ft 487 kts 104°
2026-04-29 01:26 24.41508 88.72940 40791 ft 489 kts 103°
2026-04-29 01:26 24.40117 88.80184 40799 ft 488 kts 103°
2026-04-29 01:27 24.38678 88.87471 40802 ft 488 kts 103°
2026-04-29 01:27 24.37221 88.94743 40803 ft 488 kts 103°
2026-04-29 01:28 24.35750 89.02048 40805 ft 488 kts 103°
2026-04-29 01:28 24.34274 89.09353 40802 ft 489 kts 103°
2026-04-29 01:29 24.32807 89.16602 40798 ft 489 kts 103°
2026-04-29 01:29 24.31324 89.23909 40799 ft 488 kts 103°
2026-04-29 01:30 24.29847 89.31168 40794 ft 489 kts 103°
2026-04-29 01:30 24.28363 89.38444 40804 ft 489 kts 103°
2026-04-29 01:31 24.26872 89.45736 40801 ft 489 kts 104°
2026-04-29 01:31 24.25383 89.52999 40808 ft 489 kts 103°
2026-04-29 01:32 24.23886 89.60281 40816 ft 489 kts 103°
2026-04-29 01:32 24.22383 89.67554 40817 ft 489 kts 104°
2026-04-29 01:33 24.20848 89.74815 40818 ft 490 kts 104°
2026-04-29 01:33 24.19324 89.82085 40817 ft 489 kts 104°
2026-04-29 01:34 24.17816 89.89329 40821 ft 490 kts 104°
2026-04-29 01:34 24.16297 89.96623 40818 ft 490 kts 104°
2026-04-29 01:35 24.14786 90.03869 40830 ft 489 kts 104°
2026-04-29 01:35 24.13263 90.11151 40824 ft 490 kts 104°
2026-04-29 01:36 24.11746 90.18383 40815 ft 490 kts 104°
2026-04-29 01:36 24.10210 90.25685 40819 ft 489 kts 104°
2026-04-29 01:37 24.08685 90.32918 40822 ft 490 kts 104°
2026-04-29 01:37 24.07148 90.40196 40823 ft 491 kts 104°
2026-04-29 01:38 24.05603 90.47462 40833 ft 491 kts 104°
2026-04-29 01:38 24.04050 90.54732 40830 ft 489 kts 104°
2026-04-29 01:39 24.02496 90.61989 40840 ft 489 kts 104°
2026-04-29 01:39 24.00936 90.69201 40836 ft 487 kts 105°
2026-04-29 01:40 23.99350 90.76422 40842 ft 489 kts 105°
2026-04-29 01:40 23.97781 90.83633 40830 ft 490 kts 105°
2026-04-29 01:41 23.96209 90.90895 40832 ft 489 kts 105°
2026-04-29 01:41 23.94645 90.98116 40845 ft 489 kts 105°
2026-04-29 01:42 23.93069 91.05376 40852 ft 489 kts 105°
2026-04-29 01:42 23.91496 91.12601 40854 ft 488 kts 105°
2026-04-29 01:43 23.89921 91.19817 40858 ft 489 kts 105°
2026-04-29 01:43 23.88369 91.27087 40856 ft 490 kts 104°
2026-04-29 01:44 23.86934 91.34358 40857 ft 490 kts 104°
2026-04-29 01:44 23.85508 91.41595 40865 ft 489 kts 104°
2026-04-29 01:45 23.84059 91.48869 40863 ft 491 kts 104°
2026-04-29 01:45 23.82596 91.56174 40865 ft 489 kts 104°
2026-04-29 01:46 23.81132 91.63460 40863 ft 489 kts 104°
2026-04-29 01:46 23.79647 91.70734 40868 ft 489 kts 104°
2026-04-29 01:47 23.78156 91.77981 40871 ft 489 kts 104°
2026-04-29 01:47 23.76666 91.85288 40874 ft 488 kts 104°
2026-04-29 01:48 23.75200 91.92504 40878 ft 489 kts 104°
2026-04-29 01:48 23.73711 91.99821 40875 ft 491 kts 104°
2026-04-29 01:49 23.72223 92.07115 40879 ft 489 kts 104°
2026-04-29 01:49 23.70745 92.14343 40885 ft 489 kts 104°
2026-04-29 01:50 23.69248 92.21637 40894 ft 489 kts 104°
2026-04-29 01:50 23.67757 92.28891 40904 ft 490 kts 104°
2026-04-29 01:51 23.66249 92.36213 40929 ft 490 kts 104°
2026-04-29 01:51 23.64745 92.43491 40950 ft 492 kts 104°
2026-04-29 01:52 23.63229 92.50812 40976 ft 492 kts 104°
2026-04-29 01:52 23.61719 92.58084 40984 ft 492 kts 104°
2026-04-29 01:53 23.60228 92.65406 40995 ft 493 kts 103°
2026-04-29 01:53 23.58849 92.72768 40999 ft 494 kts 103°
2026-04-29 01:54 23.57484 92.80146 41010 ft 495 kts 103°
2026-04-29 01:54 23.56118 92.87521 41009 ft 494 kts 103°
2026-04-29 01:55 23.54751 92.94880 41018 ft 494 kts 103°
2026-04-29 01:55 23.53390 93.02188 41020 ft 496 kts 103°
2026-04-29 01:56 23.52002 93.09618 41032 ft 495 kts 102°
2026-04-29 01:56 23.50616 93.17013 41046 ft 497 kts 103°
2026-04-29 01:57 23.49230 93.24391 41062 ft 496 kts 102°
2026-04-29 01:57 23.47835 93.31800 41065 ft 496 kts 102°
2026-04-29 01:58 23.46437 93.39204 41081 ft 496 kts 103°
2026-04-29 01:58 23.45057 93.46628 41098 ft 497 kts 100°
2026-04-29 01:59 23.44232 93.54153 41112 ft 496 kts 96°
2026-04-29 01:59 23.43592 93.61587 41117 ft 497 kts 96°
2026-04-29 02:00 23.42894 93.69102 41119 ft 497 kts 97°
2026-04-29 02:00 23.42145 93.76601 41120 ft 497 kts 97°
2026-04-29 02:01 23.41395 93.84180 41080 ft 499 kts 97°
2026-04-29 02:01 23.40659 93.91694 41027 ft 499 kts 97°
2026-04-29 02:02 23.39917 93.99251 40961 ft 499 kts 97°
2026-04-29 02:02 23.39167 94.06852 40926 ft 499 kts 97°
2026-04-29 02:03 23.38423 94.14357 40936 ft 499 kts 97°
2026-04-29 02:03 23.37685 94.21764 40928 ft 499 kts 97°
2026-04-29 02:04 23.36929 94.29307 40927 ft 499 kts 97°
2026-04-29 02:04 23.36173 94.36834 40918 ft 501 kts 97°
2026-04-29 02:05 23.35407 94.44411 40926 ft 499 kts 97°
2026-04-29 02:05 23.34643 94.51923 40925 ft 500 kts 97°
2026-04-29 02:06 23.33871 94.59489 40928 ft 500 kts 97°
2026-04-29 02:06 23.33090 94.67073 40935 ft 499 kts 98°
2026-04-29 02:07 23.32276 94.74651 40942 ft 501 kts 97°
2026-04-29 02:07 23.31480 94.82175 40939 ft 501 kts 97°
2026-04-29 02:08 23.30691 94.89717 40930 ft 500 kts 97°
2026-04-29 02:08 23.29900 94.97285 40922 ft 501 kts 97°
2026-04-29 02:09 23.29107 95.04841 40919 ft 502 kts 98°
2026-04-29 02:09 23.28304 95.12448 40904 ft 501 kts 97°
2026-04-29 02:10 23.27501 95.20020 40921 ft 502 kts 97°
2026-04-29 02:10 23.26692 95.27614 40912 ft 502 kts 98°
2026-04-29 02:11 23.25884 95.35162 40915 ft 502 kts 98°
2026-04-29 02:11 23.25072 95.42712 40920 ft 502 kts 98°
2026-04-29 02:12 23.24261 95.50235 40926 ft 502 kts 98°
2026-04-29 02:12 23.23443 95.57767 40921 ft 504 kts 98°
2026-04-29 02:13 23.22614 95.65366 40937 ft 502 kts 98°
2026-04-29 02:13 23.21769 95.72836 40916 ft 501 kts 98°
2026-04-29 02:14 23.20922 95.80339 40905 ft 502 kts 98°
2026-04-29 02:14 23.20079 95.87910 40886 ft 502 kts 98°
2026-04-29 02:15 23.19241 95.95467 40878 ft 502 kts 98°
2026-04-29 02:15 23.18403 96.02985 40868 ft 502 kts 98°
2026-04-29 02:16 23.17560 96.10524 40895 ft 501 kts 98°
2026-04-29 02:16 23.16712 96.18066 40912 ft 502 kts 98°
2026-04-29 02:17 23.15860 96.25616 40961 ft 501 kts 98°
2026-04-29 02:17 23.15006 96.33139 40966 ft 502 kts 98°
2026-04-29 02:18 23.14149 96.40675 40997 ft 503 kts 98°
2026-04-29 02:18 23.13278 96.48282 41015 ft 505 kts 98°
2026-04-29 02:19 23.12411 96.55844 41027 ft 503 kts 99°